K4MGY-13 Weather Reports


time (UTC)temp
C
wind
direction
speed
KPH
gust
KPH
rain 1hr
cm
rain 24hr
cm
rain mn
cm
humidity
%
barometer
mb
20260507180642 18 196 1.6 3.2 0.00 0.18 0.03 47 1014.3
20260507180112 18 244 4.8 9.7 0.00 0.18 0.03 43 1014.6
20260507175542 18 11 3.2 9.7 0.00 0.18 0.03 47 1014.6
20260507175042 18 63 3.2 3.2 0.00 0.18 0.03 46 1014.6
20260507174512 17 198 3.2 11.3 0.00 0.18 0.03 47 1014.9
20260507174012 17 70 3.2 8.0 0.00 0.18 0.03 46 1015.2
20260507173512 17 296 1.6 3.2 0.00 0.18 0.03 49 1015.2
20260507173012 17 57 0.0 4.8 0.00 0.18 0.03 51 1015.2
20260507172442 17 99 3.2 8.0 0.00 0.18 0.03 50 1015.6
20260507171912 17 270 3.2 4.8 0.00 0.18 0.03 48 1015.2
20260507171454 17 44 4.8 8.0 0.00 0.18 0.03 46 1015.6
20260507171343 17 44 4.8 8.0 0.00 0.18 0.03 46 1015.6
20260507170812 17 121 1.6 4.8 0.00 0.18 0.03 48 1015.6
20260507170312 17 256 3.2 8.0 0.00 0.18 0.03 46 1015.2
20260507165812 16 100 3.2 3.2 0.00 0.18 0.03 53 1015.2
20260507165314 16 90 3.2 8.0 0.00 0.18 0.03 52 1015.2
20260507164811 16 69 3.2 4.8 0.00 0.18 0.03 53 1015.3
20260507164312 16 78 1.6 4.8 0.00 0.18 0.03 52 1015.2
20260507163812 16 82 4.8 8.0 0.00 0.18 0.03 50 1015.6
20260507163242 16 89 3.2 11.3 0.00 0.18 0.03 50 1015.2
20260507162712 16 79 1.6 4.8 0.00 0.18 0.03 54 1015.3
20260507161612 16 85 1.6 3.2 0.00 0.18 0.03 55 1015.5
20260507161041 16 85 1.6 4.8 0.00 0.18 0.03 55 1015.9
20260507160541 16 92 3.2 4.8 0.00 0.18 0.03 53 1015.9
20260507160042 16 44 3.2 4.8 0.00 0.18 0.03 56 1015.9
20260507155542 16 64 1.6 4.8 0.00 0.18 0.03 53 1015.6
20260507155044 15 68 1.6 4.8 0.00 0.18 0.03 55 1015.9
20260507154542 15 77 1.6 4.8 0.00 0.18 0.03 56 1015.9
20260507154041 15 80 3.2 8.0 0.00 0.18 0.03 54 1015.9
20260507153511 15 59 3.2 8.0 0.00 0.18 0.03 56 1015.6
20260507153012 15 58 3.2 4.8 0.00 0.18 0.03 60 1015.9
20260507152441 15 26 3.2 4.8 0.00 0.18 0.03 57 1015.9
20260507151911 15 125 3.2 3.2 0.00 0.18 0.03 57 1015.9
20260507151342 15 112 1.6 3.2 0.00 0.18 0.03 56 1016.2
20260507150241 15 53 3.2 8.0 0.00 0.18 0.03 57 1015.6
20260507145212 14 95 1.6 3.2 0.00 0.18 0.03 58 1015.6
20260507144641 14 92 1.6 3.2 0.00 0.18 0.03 58 1015.9
20260507144113 14 104 3.2 4.8 0.00 0.18 0.03 61 1015.9
20260507143543 13 97 1.6 3.2 0.00 0.18 0.03 59 1015.9
20260507143043 13 71 1.6 3.2 0.00 0.18 0.03 61 1016.3
20260507142011 13 57 3.2 4.8 0.00 0.18 0.03 63 1016.2
20260507140942 13 93 3.2 4.8 0.00 0.18 0.03 67 1015.9
20260507140411 13 62 3.2 8.0 0.00 0.18 0.03 67 1015.9
20260507135841 12 83 1.6 8.0 0.00 0.18 0.03 67 1015.6
20260507135311 12 110 1.6 4.8 0.00 0.18 0.03 68 1015.9
20260507134743 12 117 1.6 3.2 0.00 0.18 0.03 68 1015.6
20260507134212 12 100 1.6 4.8 0.00 0.18 0.03 69 1015.9
20260507133643 12 93 1.6 4.8 0.00 0.18 0.03 72 1015.9
20260507132611 12 109 1.6 3.2 0.00 0.20 0.03 74 1015.6
20260507132042 11 94 1.6 4.8 0.00 0.20 0.03 77 1015.9
20260507131543 11 87 1.6 4.8 0.00 0.20 0.03 76 1015.6
20260507131041 11 77 1.6 8.0 0.00 0.20 0.03 77 1015.6
20260507130541 11 86 3.2 4.8 0.00 0.23 0.03 77 1015.9
20260507130011 11 103 1.6 3.2 0.00 0.25 0.03 82 1015.9
20260507125441 11 83 1.6 3.2 0.00 0.33 0.03 80 1015.9
20260507124911 11 80 1.6 4.8 0.00 0.41 0.03 81 1015.9
20260507124342 11 77 1.6 4.8 0.00 0.46 0.03 81 1015.9
20260507123812 10 84 3.2 3.2 0.00 0.46 0.03 82 1015.9
20260507123241 10 72 3.2 4.8 0.00 0.48 0.03 82 1015.9
20260507122711 10 93 3.2 4.8 0.00 0.51 0.03 83 1015.6
20260507122213 10 72 3.2 4.8 0.00 0.51 0.03 83 1015.9
20260507121711 10 96 1.6 3.2 0.00 0.51 0.03 84 1015.6
20260507121211 10 80 1.6 4.8 0.00 0.51 0.03 84 1015.6
20260507120711 10 89 3.2 4.8 0.00 0.51 0.03 84 1015.9
20260507120211 10 78 3.2 4.8 0.00 0.51 0.03 83 1015.6
20260507115641 10 74 1.6 3.2 0.00 0.51 0.03 85 1015.6
20260507115142 10 78 3.2 4.8 0.00 0.51 0.03 84 1015.6
20260507114613 10 63 3.2 4.8 0.00 0.51 0.03 87 1015.6
20260507114112 10 88 1.6 3.2 0.00 0.51 0.03 87 1015.6
20260507113613 10 95 3.2 4.8 0.00 0.51 0.03 87 1015.6
20260507113044 10 74 1.6 3.2 0.00 0.51 0.03 87 1015.2
20260507112542 10 96 1.6 3.2 0.00 0.51 0.03 87 1015.2
20260507112041 10 81 1.6 3.2 0.00 0.51 0.03 87 1015.2
20260507111511 10 89 1.6 3.2 0.00 0.51 0.03 88 1015.2
20260507110941 10 78 1.6 4.8 0.00 0.51 0.03 87 1014.9
20260507110412 10 96 1.6 3.2 0.00 0.53 0.03 86 1014.9
20260507105912 10 94 1.6 3.2 0.00 0.56 0.03 87 1014.9
20260507105411 10 76 3.2 4.8 0.00 0.58 0.03 87 1014.6
20260507104341 10 81 1.6 4.8 0.00 0.64 0.03 87 1014.6
20260507103811 10 79 3.2 4.8 0.00 0.66 0.03 88 1014.6
20260507103313 10 77 1.6 4.8 0.00 0.69 0.03 86 1014.6
20260507102741 10 70 1.6 4.8 0.00 0.76 0.03 87 1014.6
20260507102211 10 101 1.6 3.2 0.00 0.81 0.03 87 1014.6
20260507101711 10 27 1.6 4.8 0.00 0.84 0.03 88 1014.5
20260507101141 10 88 3.2 4.8 0.00 0.89 0.03 88 1014.2
20260507100641 10 75 1.6 4.8 0.00 0.89 0.03 88 1014.2
20260507100141 10 58 3.2 4.8 0.00 1.02 0.03 89 1014.6
20260507095641 10 77 1.6 3.2 0.00 1.09 0.03 90 1014.9
20260507095141 10 89 1.6 3.2 0.00 1.12 0.03 90 1014.6
20260507094611 10 90 1.6 4.8 0.00 1.24 0.03 89 1014.2
20260507094112 10 103 1.6 3.2 0.00 1.47 0.03 89 1014.2
20260507093541 10 89 1.6 3.2 0.00 1.63 0.03 89 1014.2
20260507093042 10 67 1.6 3.2 0.00 1.65 0.03 89 1014.2
20260507092511 10 86 1.6 3.2 0.00 1.65 0.03 88 1014.2
20260507092012 10 102 1.6 3.2 0.00 1.68 0.03 88 1014.6
20260507091511 10 122 1.6 3.2 0.00 1.73 0.03 89 1014.6
20260507090941 10 121 3.2 4.8 0.00 1.80 0.03 89 1014.6
20260507085911 11 98 1.6 4.8 0.00 1.88 0.03 89 1014.2
20260507085342 11 89 1.6 3.2 0.00 1.88 0.03 89 1014.2
20260507084811 11 111 1.6 3.2 0.00 1.91 0.03 90 1013.9
20260507083713 11 28 3.2 4.8 0.00 2.01 0.03 90 1014.6
20260507083141 11 84 3.2 4.8 0.00 2.03 0.03 91 1014.2
20260507082643 11 69 1.6 4.8 0.00 2.06 0.03 91 1014.6
20260507082113 11 90 1.6 3.2 0.00 2.06 0.03 92 1013.9
20260507081611 11 71 1.6 3.2 0.00 2.06 0.03 92 1013.9
20260507081111 11 95 1.6 3.2 0.00 2.06 0.03 92 1013.9
20260507080541 11 85 1.6 3.2 0.00 2.06 0.03 92 1014.2
20260507080041 11 92 1.6 3.2 0.00 2.06 0.03 92 1014.6
20260507075511 11 105 1.6 3.2 0.00 2.06 0.03 92 1014.2
20260507075011 11 97 1.6 3.2 0.00 2.06 0.03 92 1013.9
20260507074442 11 94 1.6 3.2 0.00 2.06 0.03 93 1014.2
20260507073911 11 81 3.2 3.2 0.00 2.06 0.03 93 1014.2
20260507073341 11 85 1.6 3.2 0.00 2.06 0.03 93 1014.2
20260507072811 11 99 1.6 3.2 0.03 2.06 0.03 94 1014.2
20260507072311 11 84 1.6 3.2 0.03 2.06 0.03 93 1014.2
20260507071741 11 95 1.6 3.2 0.03 2.06 0.03 93 1014.6
20260507071211 11 99 1.6 3.2 0.03 2.06 0.03 93 1014.6
20260507070141 11 92 1.6 3.2 0.03 2.06 0.03 93 1014.2
20260507065641 11 95 1.6 3.2 0.03 2.06 0.03 92 1014.6
20260507065141 11 93 1.6 3.2 0.03 2.06 0.03 92 1014.6
20260507064612 11 97 1.6 3.2 0.03 2.06 0.03 92 1014.6
20260507064041 11 90 1.6 3.2 0.03 2.06 0.03 92 1014.6
20260507063541 11 77 1.6 4.8 0.03 2.06 0.03 92 1014.9
20260507063011 11 84 1.6 4.8 0.00 2.03 0.00 92 1014.6
20260507062441 11 58 3.2 8.0 0.00 2.03 0.00 92 1014.9
20260507061941 11 93 1.6 3.2 0.00 2.03 0.00 93 1014.6
20260507061441 11 92 1.6 3.2 0.00 2.03 0.00 93 1014.9
20260507060941 11 81 1.6 3.2 0.00 2.03 0.00 94 1014.6
20260507060441 11 71 1.6 3.2 0.00 2.03 0.00 95 1014.6
20260507055911 11 59 3.2 4.8 0.00 2.03 0.00 95 1014.6
20260507055411 11 84 1.6 3.2 0.00 2.03 0.00 96 1014.2
20260507054913 11 63 3.2 3.2 0.00 2.03 0.00 96 1014.5
20260507054411 11 51 3.2 4.8 0.00 2.03 0.00 96 1014.6
20260507053911 11 73 1.6 3.2 0.00 2.03 0.00 96 1014.2
20260507053341 11 89 1.6 3.2 0.00 2.03 0.00 96 1014.2
20260507052841 11 94 1.6 3.2 0.00 2.03 0.00 96 1014.2
20260507052340 11 78 1.6 3.2 0.00 2.03 0.00 96 1014.6
20260507051811 11 65 3.2 4.8 0.00 2.03 0.00 96 1014.9
20260507051312 11 76 1.6 3.2 0.00 2.03 0.00 96 1014.6
20260507050741 11 102 1.6 3.2 0.00 2.03 0.00 97 1015.2
20260507050240 11 86 1.6 3.2 0.00 2.03 0.00 96 1015.2
20260507045741 11 80 1.6 3.2 0.00 2.03 2.03 96 1014.9
20260507045211 11 83 1.6 3.2 0.00 2.03 2.03 96 1015.2
20260507044711 11 77 1.6 3.2 0.00 2.03 2.03 96 1015.2
20260507044141 11 95 1.6 3.2 0.00 2.03 2.03 96 1015.2
20260507043611 11 95 1.6 3.2 0.00 2.03 2.03 96 1015.6
20260507043111 11 89 1.6 3.2 0.00 2.03 2.03 96 1015.6
20260507042543 11 88 1.6 3.2 0.00 2.03 2.03 96 1015.6
20260507042041 11 85 1.6 3.2 0.00 2.03 2.03 96 1015.2
20260507041511 11 95 1.6 3.2 0.00 2.03 2.03 96 1015.2
20260507040941 11 84 1.6 3.2 0.00 2.03 2.03 96 1014.9
20260507040441 11 89 1.6 3.2 0.00 2.03 2.03 96 1014.9
20260507035941 11 96 1.6 3.2 0.00 2.03 2.03 96 1014.6
20260507035441 11 102 1.6 3.2 0.00 2.03 2.03 96 1015.2
20260507034942 11 114 1.6 3.2 0.00 2.03 2.03 96 1015.2
20260507034411 11 110 1.6 3.2 0.00 2.03 2.03 96 1015.2
20260507033911 11 96 1.6 3.2 0.00 2.03 2.03 96 1014.9
20260507032841 11 95 1.6 3.2 0.00 2.03 2.03 96 1014.9
20260507032341 11 90 1.6 3.2 0.00 2.03 2.03 96 1015.2
20260507031342 11 86 1.6 3.2 0.00 2.03 2.03 95 1015.2
20260507030810 11 105 1.6 3.2 0.00 2.03 2.03 95 1014.9
20260507030241 11 81 1.6 3.2 0.00 2.03 2.03 95 1015.2
20260507025711 11 101 1.6 3.2 0.00 2.03 2.03 95 1014.9
20260507025211 11 69 3.2 4.8 0.03 2.03 2.03 95 1014.6
20260507024710 11 86 3.2 4.8 0.03 2.03 2.03 96 1014.9
20260507024210 11 64 3.2 4.8 0.05 2.03 2.03 96 1014.6
20260507023712 11 91 1.6 3.2 0.05 2.03 2.03 96 1014.9
20260507023140 11 80 1.6 4.8 0.05 2.03 2.03 96 1014.2
20260507022611 12 76 1.6 3.2 0.05 2.03 2.03 96 1014.2
20260507022040 12 97 3.2 3.2 0.05 2.03 2.03 96 1014.2
20260507021541 12 82 3.2 4.8 0.08 2.03 2.03 96 1014.6
20260507021011 12 65 3.2 4.8 0.08 2.03 2.03 95 1014.2
20260507020440 12 58 1.6 3.2 0.08 2.03 2.03 95 1014.2
20260507015940 12 70 1.6 3.2 0.08 2.03 2.03 95 1014.2
20260507015411 12 35 4.8 9.7 0.08 2.01 2.01 95 1014.6
20260507014840 12 65 3.2 8.0 0.08 2.01 2.01 95 1014.2
20260507014310 12 43 3.2 11.3 0.05 1.98 1.98 96 1015.2
20260507013740 12 74 1.6 3.2 0.05 1.98 1.98 97 1014.9
20260507013210 12 112 1.6 3.2 0.05 1.98 1.98 97 1014.9
20260507012640 12 107 1.6 4.8 0.05 1.98 1.98 97 1014.6
20260507012140 12 95 1.6 4.8 0.05 1.98 1.98 97 1014.9
20260507011641 12 188 1.6 3.2 0.05 1.98 1.98 97 1014.9
20260507010041 12 83 1.6 4.8 0.03 1.96 1.96 97 1014.2
20260507005540 12 74 1.6 3.2 0.00 1.93 1.93 96 1013.9
20260507005010 12 83 3.2 8.0 0.00 1.93 1.93 97 1014.6
20260507004511 12 95 0.0 3.2 0.00 1.93 1.93 96 1013.9
20260507003941 12 110 1.6 3.2 0.00 1.93 1.93 96 1013.5
20260507003441 12 145 3.2 4.8 0.00 1.93 1.93 96 1013.2
20260507002911 12 109 1.6 3.2 0.00 1.93 1.93 96 1012.9
20260507002340 12 118 1.6 4.8 0.00 1.93 1.93 96 1012.9
20260507001840 12 140 3.2 4.8 0.00 1.93 1.93 96 1012.9
20260507001310 12 146 3.2 4.8 0.00 1.93 1.93 96 1012.9
20260507000740 12 140 3.2 4.8 0.00 1.93 1.93 96 1012.9
20260507000212 12 150 3.2 4.8 0.00 1.93 1.93 96 1013.2
20260506235640 12 145 3.2 4.8 0.00 1.93 1.93 96 1012.9
20260506235143 12 133 1.6 3.2 0.00 1.93 1.93 96 1012.9
20260506234642 12 119 3.2 4.8 0.00 1.93 1.93 95 1013.5
20260506234110 12 182 1.6 4.8 0.00 1.93 1.93 95 1013.5
20260506233611 12 113 1.6 3.2 0.00 1.93 1.93 95 1013.5
20260506233040 12 139 3.2 8.0 0.00 1.93 1.93 95 1013.5
20260506232510 12 132 3.2 4.8 0.00 1.93 1.93 95 1013.5
20260506231940 13 109 1.6 4.8 0.00 1.93 1.93 95 1013.2
20260506231410 13 70 3.2 4.8 0.00 1.93 1.93 95 1014.2
20260506230910 12 250 1.6 3.2 0.00 1.93 1.93 95 1013.9
20260506225840 13 84 3.2 4.8 0.00 1.93 1.93 95 1013.5
20260506225311 12 96 3.2 4.8 0.00 1.93 1.93 95 1013.5
20260506224811 12 51 3.2 8.0 0.00 1.93 1.93 95 1013.9
20260506223810 12 90 3.2 4.8 0.00 1.93 1.93 96 1014.2
20260506223312 12 124 3.2 4.8 0.00 1.93 1.93 95 1014.2
20260506222740 12 158 1.6 4.8 0.00 1.93 1.93 95 1013.9
20260506222244 12 137 1.6 4.8 0.00 1.93 1.93 95 1014.2
20260506221740 12 78 1.6 8.0 0.00 1.93 1.93 95 1014.2
20260506221211 12 139 3.2 4.8 0.00 1.93 1.93 95 1014.2
20260506220641 12 115 1.6 4.8 0.00 1.93 1.93 95 1014.6
20260506220140 12 112 1.6 3.2 0.00 1.96 1.93 95 1014.6
20260506215610 12 136 3.2 4.8 0.00 1.98 1.93 95 1014.6
20260506215040 12 151 3.2 4.8 0.00 1.98 1.93 95 1014.2
20260506214512 12 116 3.2 4.8 0.00 1.98 1.93 95 1013.5
20260506213942 12 148 3.2 4.8 0.00 1.98 1.93 95 1013.5
20260506213412 12 111 3.2 4.8 0.00 1.98 1.93 94 1013.5
20260506212910 12 107 3.2 4.8 0.00 1.98 1.93 94 1013.5
20260506211840 12 68 3.2 4.8 0.03 1.98 1.93 94 1013.9
20260506210812 12 153 3.2 4.8 0.03 1.98 1.93 95 1012.9
20260506210310 12 57 1.6 4.8 0.03 1.98 1.93 95 1012.5
20260506205811 12 67 3.2 4.8 0.03 1.98 1.93 95 1013.2
20260506205240 12 106 3.2 4.8 0.03 1.98 1.93 95 1013.2
20260506204740 12 39 3.2 4.8 0.03 1.98 1.93 95 1013.5
20260506204210 12 91 3.2 8.0 0.03 1.98 1.93 95 1013.5
20260506203640 12 61 3.2 4.8 0.03 1.98 1.93 95 1013.5
20260506203140 12 73 1.6 4.8 0.03 1.98 1.93 95 1013.5
20260506202610 12 60 3.2 8.0 0.03 1.98 1.93 95 1013.5
20260506202110 12 9 3.2 8.0 0.00 1.96 1.91 95 1013.5
20260506201610 12 55 4.8 8.0 0.00 1.96 1.91 95 1013.5
20260506201111 12 49 4.8 8.0 0.00 1.96 1.91 95 1013.5
20260506200613 12 65 3.2 8.0 0.00 1.96 1.91 94 1013.5
20260506200110 12 85 3.2 4.8 0.03 1.96 1.91 95 1013.5
20260506194541 12 82 3.2 4.8 0.03 1.96 1.91 95 1013.2
20260506194010 12 74 3.2 4.8 0.03 1.96 1.91 95 1013.2
20260506193440 12 62 3.2 3.2 0.03 1.96 1.91 94 1012.9
20260506192941 12 92 1.6 4.8 0.03 1.96 1.91 95 1013.2
20260506192440 12 9 1.6 4.8 0.03 1.96 1.91 96 1013.5
20260506191940 12 68 3.2 8.0 0.03 1.96 1.91 95 1013.2
20260506191440 12 56 1.6 3.2 0.03 1.96 1.91 95 1013.2
20260506190940 12 51 3.2 4.8 0.03 1.96 1.91 95 1013.9
20260506190410 12 50 3.2 8.0 0.03 1.96 1.91 96 1013.5
20260506185840 12 45 4.8 8.0 0.00 1.93 1.88 96 1013.5
20260506185340 12 63 3.2 4.8 0.00 1.93 1.88 96 1013.9
20260506184810 12 62 3.2 4.8 0.00 1.93 1.88 96 1014.2
20260506184310 12 8 1.6 4.8 0.00 1.93 1.88 96 1013.9
20260506183740 12 48 3.2 8.0 0.00 1.93 1.88 96 1014.2
20260506182710 12 44 3.2 8.0 0.00 1.93 1.88 96 1013.9
20260506182210 12 172 1.6 4.8 0.00 1.93 1.88 96 1013.9
20260506181640 12 87 1.6 3.2 0.00 1.93 1.88 96 1013.5
20260506181141 12 43 4.8 8.0 0.00 1.93 1.88 96 1013.5